Wind_Speed
35 35 35 36 36 36 36 36 37 37 37 38 38 38 38 38 37 37 37 38 38 38 39 41 42 42 42 42 44 44 43 43 43 43 44 45 45 45 46 46 46 45 45 44
36 36 36 36 36 37 36 36 36 36 37 36 37 37 38 38 38 38 37 37 37 38 39 40 41 42 43 43 43 44 43 43 44 44 43 44 44 44 45 45 44 44 44 43
37 37 37 37 36 36 36 36 36 35 35 35 35 36 37 37 37 37 37 37 37 38 38 39 40 42 43 43 43 43 44 44 44 44 44 45 45 44 44 44 44 44 43 43
38 37 37 37 36 36 35 35 35 34 34 34 34 34 35 36 37 37 37 37 37 37 38 39 39 40 41 42 42 42 42 42 43 44 45 45 45 45 45 45 44 44 44 43
37 37 37 37 36 35 34 34 34 33 33 33 33 34 34 34 35 36 36 37 37 37 37 38 39 40 40 41 41 42 42 42 42 43 43 43 44 44 44 44 44 43 44 44
36 36 36 36 35 34 34 33 33 32 32 32 32 32 32 32 33 34 34 34 35 36 37 37 38 39 40 41 41 41 41 41 41 42 42 42 42 42 43 43 42 43 43 43
34 34 35 34 34 33 33 33 32 32 32 32 32 32 32 32 32 32 32 32 33 33 34 36 36 37 38 38 38 39 40 40 40 40 40 41 41 41 41 42 43 43 42 42
34 33 33 33 32 32 32 32 32 32 32 32 32 32 32 32 32 32 32 31 31 31 31 32 34 35 35 36 36 37 38 38 39 39 39 39 39 39 40 40 41 42 42 41
33 33 33 33 33 33 33 33 33 32 32 32 32 31 31 31 31 31 31 30 29 29 29 29 30 31 33 33 35 36 37 37 37 38 36 37 37 37 38 38 39 40 40 40
34 33 33 33 33 34 34 34 34 33 33 32 32 31 31 30 29 29 29 28 28 28 27 28 28 29 30 31 32 33 35 36 36 37 36 35 35 36 36 37 37 38 39 39
33 33 34 33 34 34 35 34 34 34 33 33 32 31 30 29 28 27 27 27 27 27 27 27 27 28 28 30 31 32 33 34 36 36 36 35 35 35 35 35 36 37 38 38
33 34 34 33 34 34 34 34 34 33 33 32 32 31 30 29 28 28 27 27 27 26 27 27 27 27 28 29 30 31 32 33 34 35 35 35 35 35 35 35 35 35 36 36
33 33 33 33 33 34 34 33 33 32 32 31 31 31 30 29 29 28 28 27 26 26 25 26 26 27 27 27 28 29 30 31 32 33 34 34 34 34 34 35 35 34 34 35
33 33 33 33 33 33 33 33 32 32 32 31 31 31 30 30 29 29 28 27 26 26 25 25 25 26 26 26 27 27 28 29 30 31 32 33 33 34 34 34 35 35 35 35
33 33 32 32 32 32 32 32 31 31 31 31 31 31 30 29 28 27 27 26 26 25 25 25 25 25 26 26 26 27 28 28 29 30 31 32 33 33 33 33 34 34 35 35
32 32 31 31 31 31 31 31 30 30 30 30 30 29 29 28 27 26 25 25 25 25 25 25 25 25 25 25 25 25 26 27 27 28 28 29 30 31 31 31 32 32 33 33
31 31 31 30 30 30 30 30 30 29 29 28 28 27 27 26 25 25 24 24 24 24 24 24 24 24 25 25 24 24 25 25 26 26 27 27 28 29 29 30 30 30 30 30
31 31 30 30 29 29 29 29 29 28 28 27 27 26 25 24 23 23 24 24 24 23 23 23 23 23 24 25 25 24 24 25 25 26 26 27 27 28 28 29 29 29 29 30
31 30 29 29 29 28 28 28 28 28 28 27 25 24 24 24 23 23 23 22 22 22 22 22 22 21 22 23 23 23 23 23 24 25 25 26 26 27 27 28 28 28 29 29
30 30 29 29 29 28 28 29 28 28 27 26 25 24 24 23 23 22 22 22 22 21 21 21 21 21 21 21 22 22 23 23 23 24 24 25 25 26 26 27 27 28 28 29
30 30 29 29 29 29 29 29 28 28 27 26 24 24 23 22 22 22 21 21 21 21 21 20 20 20 20 20 20 21 22 23 22 23 23 24 25 26 26 26 27 27 28 28
31 30 30 29 29 29 29 29 28 27 26 25 24 23 22 22 21 21 21 21 21 21 21 21 21 21 20 20 20 21 21 22 22 22 23 24 24 25 26 27 27 27 28 28
30 30 30 30 30 30 29 29 27 26 25 23 22 22 21 21 21 20 20 20 21 20 20 20 20 20 20 20 20 21 21 22 22 22 23 23 23 24 25 26 26 27 27 28
31 30 30 30 29 29 28 27 26 25 23 23 22 21 21 21 20 20 20 20 20 20 20 20 20 20 20 20 20 20 21 22 22 23 23 23 24 24 24 24 25 26 27 27
31 30 30 30 29 28 27 26 24 23 23 22 22 21 21 20 20 20 20 20 20 20 20 20 20 20 19 19 20 20 21 22 22 23 23 23 23 24 24 24 24 24 25 26
31 30 30 29 27 26 25 24 23 22 22 22 22 21 21 21 20 20 19 19 19 19 19 19 19 19 19 20 20 20 21 21 22 22 23 24 23 23 23 23 23 24 24 24
30 30 29 27 26 25 24 23 22 22 22 22 21 21 21 21 20 20 20 19 19 19 19 18 18 18 19 19 20 20 20 21 21 21 22 23 23 23 23 23 23 24 24 24
Wind_Direction
301 299 297 294 294 295 293 291 289 288 286 285 284 282 280 279 277 276 273 270 267 264 260 258 255 255 254 252 251 251 251 250 251 250 250 250 249 250 250 250 251 252 253 253
299 297 296 295 294 295 294 292 291 289 287 285 284 283 281 280 279 276 273 270 267 264 261 259 258 256 255 254 252 251 251 250 250 250 250 249 249 250 250 250 251 252 252 253
299 298 297 297 297 295 294 293 292 290 288 286 285 284 283 281 279 277 274 271 269 266 263 261 260 258 256 255 253 252 251 250 250 250 250 249 249 249 249 250 251 252 252 253
301 300 298 299 298 296 295 295 294 292 291 288 287 286 285 284 282 279 275 271 269 268 264 261 260 259 257 255 254 253 252 250 249 250 250 249 249 249 249 249 250 250 251 253
303 301 300 299 299 298 296 295 294 293 291 290 290 288 286 286 284 281 278 273 270 268 267 263 260 259 257 255 254 254 253 251 250 250 250 250 249 249 248 249 250 250 251 253
305 303 303 302 301 299 298 296 295 294 293 292 291 289 288 287 285 283 280 277 273 269 267 265 262 259 257 256 254 253 252 251 249 249 249 249 249 248 248 248 250 251 252 253
306 304 303 304 303 301 299 298 296 295 294 293 292 291 291 289 286 284 281 279 275 272 269 266 262 259 257 255 254 253 252 249 249 248 248 248 248 248 248 249 249 250 251 253
305 304 303 304 302 301 299 298 297 296 295 295 294 292 292 291 290 287 285 281 278 273 270 267 263 259 256 254 253 253 252 250 249 249 248 248 248 249 249 249 249 249 250 252
305 304 303 303 302 301 299 298 296 296 296 296 295 294 293 293 292 289 286 282 279 277 271 267 264 260 257 254 253 252 252 250 248 248 248 248 248 249 250 250 250 250 251 252
303 302 301 301 300 299 299 297 296 295 295 295 295 294 294 294 293 291 288 283 279 277 273 269 265 261 258 255 253 252 250 248 247 248 248 248 248 248 249 250 251 251 251 252
303 302 300 300 299 299 298 298 297 296 295 295 294 294 293 292 291 290 288 284 280 278 274 270 267 263 260 257 253 253 250 248 248 248 248 247 247 247 249 250 250 251 252 252
304 303 302 301 300 299 299 299 298 296 295 294 294 293 292 292 290 289 287 284 281 279 276 271 268 266 262 258 255 254 253 250 249 249 249 248 248 248 249 249 250 251 251 252
304 303 302 302 301 301 300 299 298 297 295 294 293 292 292 291 289 288 286 282 281 279 277 273 270 267 264 260 257 254 254 252 250 249 249 249 249 250 250 250 250 251 252 252
304 303 303 303 303 302 301 300 300 298 297 296 294 293 291 290 288 286 284 281 280 279 276 274 272 268 264 261 259 257 255 252 250 248 249 249 250 251 251 251 251 252 252 253
305 304 304 304 304 304 303 302 300 300 299 298 296 295 292 290 287 285 282 280 279 278 277 274 271 267 263 262 259 256 255 253 250 250 251 251 251 251 252 251 251 251 252 253
307 306 306 306 306 305 305 304 302 301 301 301 299 297 294 290 287 285 282 280 279 278 277 275 271 268 264 262 259 257 255 253 252 251 251 250 250 250 250 250 250 250 251 252
309 309 308 307 306 307 307 306 305 303 303 302 300 298 296 293 289 286 284 282 282 280 279 275 272 268 264 262 258 256 254 252 251 251 251 250 248 248 249 249 249 249 250 250
311 310 309 308 308 308 308 308 308 307 306 303 302 299 297 295 292 288 286 284 282 281 281 278 274 270 265 261 259 256 254 252 250 250 250 249 248 247 247 247 248 248 248 249
313 312 311 310 310 309 309 309 310 309 307 305 302 300 297 295 293 291 289 286 283 281 280 279 277 273 268 263 259 256 254 252 250 249 250 249 248 247 246 247 247 247 247 248
314 313 312 311 311 310 309 309 309 309 308 305 303 300 298 295 293 292 290 287 285 282 280 279 278 275 272 267 261 257 254 253 251 250 249 248 247 247 247 247 248 247 247 247
315 314 313 312 311 310 310 310 310 308 307 304 303 301 299 296 294 292 290 287 285 282 279 278 276 275 273 269 265 260 256 254 252 250 249 248 248 248 248 248 248 248 247 248
315 314 314 313 312 311 311 311 309 308 306 304 302 301 299 298 296 294 292 288 286 283 280 278 275 272 270 268 266 262 259 256 254 252 251 250 251 250 249 249 249 248 247 248
315 314 314 313 312 312 311 311 310 309 307 305 303 302 300 298 297 296 294 291 288 285 282 279 276 272 270 268 265 261 258 256 254 252 252 252 252 251 250 249 249 249 249 249
315 315 314 314 314 313 313 312 311 309 308 306 305 304 302 300 299 297 295 293 289 286 284 281 278 273 270 267 264 260 257 254 253 253 253 253 253 252 251 250 250 250 249 250
315 315 315 315 315 314 314 313 312 310 309 307 305 304 304 302 300 298 296 294 292 289 286 282 279 275 273 269 264 260 258 257 255 254 253 253 252 251 250 249 250 250 250 250
315 316 316 316 315 315 315 314 313 311 310 308 306 305 303 303 301 300 298 296 293 291 289 286 282 277 272 270 266 262 259 258 256 255 253 251 250 250 249 248 249 249 250 250
315 316 316 316 315 315 315 315 314 314 313 312 309 307 305 303 302 301 300 299 296 292 290 287 283 279 275 272 268 263 259 258 258 257 253 251 250 250 249 249 249 250 250 251
Height
5584 5581 5577 5574 5572 5568 5565 5561 5558 5557 5553 5551 5548 5546 5544 5543 5542 5541 5540 5540 5540 5540 5541 5542 5544 5546 5548 5551 5553 5555 5558 5560 5563 5566 5569 5572 5576 5579 5583 5586 5589 5593 5596 5599
5576 5572 5569 5566 5563 5559 5556 5552 5549 5546 5544 5541 5538 5536 5534 5532 5531 5530 5529 5528 5528 5529 5530 5531 5533 5535 5537 5539 5541 5543 5546 5549 5551 5554 5557 5561 5564 5568 5571 5575 5578 5581 5584 5587
5567 5563 5559 5557 5554 5550 5547 5543 5540 5536 5535 5531 5528 5526 5524 5522 5520 5519 5518 5518 5518 5518 5518 5519 5521 5522 5525 5527 5529 5531 5534 5537 5539 5542 5545 5549 5552 5556 5560 5563 5566 5570 5573 5576
5557 5554 5550 5550 5544 5540 5537 5533 5530 5526 5524 5521 5519 5516 5514 5511 5510 5508 5508 5507 5507 5507 5507 5508 5509 5510 5513 5515 5517 5520 5522 5525 5527 5531 5534 5537 5541 5544 5548 5551 5555 5558 5561 5564
5547 5543 5540 5539 5535 5531 5528 5525 5521 5518 5515 5512 5510 5508 5505 5502 5500 5498 5497 5496 5496 5495 5496 5496 5497 5499 5501 5503 5506 5508 5511 5513 5516 5519 5522 5526 5529 5533 5536 5540 5543 5547 5550 5553
5539 5534 5531 5530 5525 5521 5519 5516 5513 5509 5506 5503 5500 5499 5497 5494 5491 5488 5487 5485 5485 5484 5484 5485 5486 5487 5489 5491 5494 5496 5499 5502 5504 5507 5511 5514 5518 5521 5525 5528 5532 5535 5538 5541
5531 5526 5523 5520 5516 5513 5511 5508 5504 5500 5497 5494 5491 5489 5487 5484 5481 5479 5477 5475 5474 5474 5474 5474 5474 5476 5478 5480 5482 5485 5487 5490 5493 5496 5499 5502 5506 5509 5513 5517 5520 5524 5527 5529
5524 5519 5518 5512 5508 5506 5502 5498 5495 5492 5489 5486 5483 5480 5477 5475 5472 5470 5468 5466 5465 5464 5463 5463 5464 5465 5467 5469 5472 5474 5476 5479 5482 5484 5488 5491 5495 5498 5501 5505 5508 5511 5514 5517
5517 5515 5509 5504 5500 5497 5493 5490 5487 5484 5481 5477 5475 5472 5469 5466 5464 5461 5459 5457 5456 5455 5454 5454 5454 5455 5457 5459 5461 5463 5466 5468 5471 5474 5477 5480 5484 5487 5490 5493 5496 5499 5503 5506
5509 5505 5501 5497 5493 5489 5486 5482 5479 5475 5472 5469 5466 5463 5461 5458 5455 5453 5450 5449 5447 5447 5446 5446 5446 5446 5447 5449 5451 5453 5455 5458 5461 5464 5467 5470 5473 5476 5479 5482 5485 5488 5491 5494
5501 5497 5493 5489 5485 5481 5477 5474 5470 5467 5463 5460 5457 5455 5452 5450 5447 5445 5442 5441 5439 5438 5438 5437 5437 5438 5439 5440 5442 5443 5445 5448 5451 5454 5457 5460 5463 5466 5469 5472 5474 5477 5480 5483
5493 5489 5485 5481 5477 5473 5469 5465 5461 5458 5455 5452 5448 5446 5443 5441 5439 5437 5434 5433 5431 5430 5429 5429 5429 5429 5430 5431 5432 5434 5436 5438 5441 5444 5447 5450 5453 5456 5458 5462 5464 5467 5470 5472
5484 5480 5476 5472 5468 5464 5460 5457 5453 5449 5446 5443 5440 5437 5435 5432 5430 5428 5426 5425 5423 5422 5422 5421 5421 5421 5421 5422 5424 5425 5427 5429 5432 5434 5437 5440 5443 5446 5449 5452 5454 5457 5460 5462
5476 5472 5468 5464 5460 5456 5452 5448 5444 5441 5437 5434 5431 5429 5426 5424 5421 5419 5418 5416 5415 5415 5414 5413 5413 5413 5413 5414 5415 5417 5418 5420 5423 5425 5428 5430 5433 5436 5439 5442 5445 5447 5450 5452
5468 5464 5460 5456 5452 5448 5444 5440 5436 5433 5429 5426 5423 5420 5417 5415 5413 5411 5409 5408 5407 5407 5406 5405 5405 5405 5405 5406 5407 5408 5410 5411 5414 5416 5418 5421 5424 5426 5429 5431 5434 5437 5439 5442
5460 5456 5452 5448 5444 5440 5436 5432 5428 5425 5421 5418 5414 5411 5408 5406 5404 5403 5401 5400 5399 5399 5398 5397 5397 5397 5397 5398 5398 5400 5401 5403 5405 5407 5409 5412 5414 5416 5419 5422 5424 5427 5429 5432
5453 5449 5445 5441 5437 5433 5428 5424 5421 5417 5413 5410 5407 5404 5401 5398 5397 5395 5394 5392 5391 5390 5389 5389 5389 5389 5389 5390 5391 5392 5393 5395 5397 5399 5401 5403 5405 5407 5410 5412 5415 5417 5420 5422
5445 5441 5437 5433 5429 5426 5422 5417 5413 5410 5406 5402 5399 5396 5394 5392 5390 5388 5387 5385 5384 5383 5382 5381 5381 5381 5382 5382 5383 5384 5385 5387 5389 5390 5392 5394 5396 5399 5401 5403 5406 5408 5411 5413
5438 5434 5430 5426 5422 5419 5415 5411 5407 5403 5399 5395 5392 5390 5387 5385 5383 5381 5379 5378 5377 5376 5375 5374 5374 5374 5374 5374 5375 5377 5378 5379 5381 5383 5385 5386 5388 5390 5393 5395 5397 5400 5402 5404
5432 5427 5423 5419 5415 5412 5408 5404 5400 5396 5392 5389 5386 5383 5380 5378 5376 5374 5373 5371 5370 5369 5369 5368 5368 5367 5367 5367 5368 5369 5370 5372 5373 5375 5377 5379 5381 5383 5385 5387 5389 5391 5393 5396
5425 5421 5417 5413 5409 5405 5401 5397 5393 5389 5385 5382 5379 5376 5374 5371 5369 5367 5366 5365 5363 5362 5362 5361 5361 5361 5360 5361 5361 5362 5363 5365 5366 5368 5369 5371 5373 5375 5377 5378 5380 5382 5385 5387
5419 5415 5410 5406 5402 5398 5394 5390 5386 5382 5378 5375 5372 5370 5367 5365 5363 5361 5359 5358 5357 5356 5355 5354 5354 5354 5354 5354 5354 5355 5356 5357 5359 5360 5362 5363 5365 5366 5368 5370 5372 5374 5376 5378
5412 5408 5404 5399 5395 5391 5387 5383 5379 5375 5372 5368 5366 5363 5361 5359 5357 5355 5353 5352 5350 5349 5348 5347 5347 5347 5347 5347 5347 5348 5349 5350 5351 5353 5354 5355 5357 5358 5360 5362 5363 5365 5367 5369
5406 5401 5397 5393 5388 5384 5380 5376 5372 5368 5365 5362 5360 5357 5355 5353 5351 5349 5347 5345 5344 5343 5342 5341 5340 5340 5340 5340 5340 5341 5341 5342 5344 5345 5347 5348 5349 5350 5352 5354 5355 5357 5359 5361
5399 5394 5390 5385 5381 5377 5373 5370 5366 5362 5359 5357 5354 5351 5349 5347 5345 5343 5341 5339 5338 5336 5335 5334 5333 5333 5333 5333 5333 5334 5334 5335 5336 5338 5339 5340 5341 5343 5344 5346 5347 5349 5351 5353
5392 5388 5383 5379 5375 5371 5367 5364 5360 5357 5354 5351 5348 5346 5343 5341 5339 5337 5335 5333 5332 5330 5329 5328 5327 5326 5326 5326 5326 5327 5327 5328 5329 5330 5331 5332 5334 5335 5337 5338 5340 5341 5343 5345
5385 5381 5377 5372 5369 5365 5362 5358 5355 5352 5349 5346 5343 5340 5338 5335 5333 5331 5329 5327 5326 5324 5323 5322 5321 5320 5319 5319 5319 5320 5320 5321 5321 5322 5323 5325 5326 5328 5329 5331 5332 5334 5336 5337